STARLINK-34552

Last updated on Sat Aug 02 2025 00:02:05 GMT+0000 (Coordinated Universal Time)

1 64731U 25144H 25213.25840885 .00070645 00000+0 12651-2 0 9998 2 64731 53.1605 126.2848 0002857 153.4316 206.6840 15.49344633 5945
UTC large
Height (km)
Speed (km/s)
/
Latitude / Longitude
Inclination (degrees)
Orbital Period (minutes)
Azimuth
Elevation
Range (km)
Doppler Factor

Next 0 passes for location: London (51.5072 / 0.1276)

Sorry there are no passes over London.